ELY5114 UGSB-LLBG

Flight info

Callsign ELY5114
Flight time 1h 58m
Altitude 28000
Route IZERO L21 TBN/N0453F340 UW706 SIV UT284 EVKIT/N0449F350 UB545 VESAR/N0446F340 DCT EMEDA/N0448F350 DCT TUZIB DCT AZERE L189 ZUKKO
Aircraft B738/M-SDE2E3FGHIRWXY/LB1

Departure

Time 2026-05-06 17:13
Airport Alexander Kartveli Batumi International Airport (UGSB)

Arrival

Time 2026-05-06 19:11
Airport Ben Gurion International Airport (LLBG)
Time Latitude Longitude Altitude Speed Heading
2026-05-06 16:40 41.60592 41.61065 16 ft 0 kts 79°
2026-05-06 17:00 41.60592 41.61068 14 ft 0 kts 79°
2026-05-06 17:01 41.60594 41.61077 14 ft 0 kts 79°
2026-05-06 17:10 41.60593 41.61079 -13 ft 1 kts 89°
2026-05-06 17:10 41.60579 41.61094 15 ft 4 kts 166°
2026-05-06 17:10 41.60555 41.61067 14 ft 8 kts 233°
2026-05-06 17:10 41.60521 41.60965 14 ft 16 kts 257°
2026-05-06 17:11 41.60457 41.60849 16 ft 18 kts 174°
2026-05-06 17:11 41.60360 41.60959 16 ft 22 kts 131°
2026-05-06 17:11 41.60244 41.61073 14 ft 12 kts 134°
2026-05-06 17:11 41.60251 41.61129 16 ft 3 kts 12°
2026-05-06 17:12 41.60263 41.61119 14 ft 3 kts 308°
2026-05-06 17:12 41.60282 41.61082 15 ft 10 kts 311°
2026-05-06 17:12 41.60507 41.60730 17 ft 93 kts 310°
2026-05-06 17:12 41.61105 41.59805 36 ft 161 kts 311°
2026-05-06 17:13 41.61817 41.58713 275 ft 151 kts 311°
2026-05-06 17:13 41.62578 41.57560 773 ft 161 kts 309°
2026-05-06 17:13 41.63243 41.56538 990 ft 139 kts 309°
2026-05-06 17:13 41.63883 41.55545 762 ft 147 kts 306°
2026-05-06 17:14 41.64254 41.54127 772 ft 179 kts 266°
2026-05-06 17:14 41.64247 41.52459 1557 ft 179 kts 272°
2026-05-06 17:14 41.64314 41.50750 2155 ft 195 kts 273°
2026-05-06 17:14 41.64394 41.48820 2394 ft 220 kts 272°
2026-05-06 17:15 41.64479 41.46663 2641 ft 244 kts 272°
2026-05-06 17:15 41.64565 41.44349 3216 ft 252 kts 272°
2026-05-06 17:15 41.64649 41.41987 3908 ft 256 kts 272°
2026-05-06 17:15 41.64731 41.39592 4636 ft 260 kts 272°
2026-05-06 17:16 41.64810 41.37164 5333 ft 263 kts 272°
2026-05-06 17:16 41.64889 41.34696 5979 ft 268 kts 272°
2026-05-06 17:16 41.64967 41.32189 6644 ft 272 kts 272°
2026-05-06 17:16 41.65046 41.29641 7274 ft 276 kts 272°
2026-05-06 17:17 41.65124 41.27059 7912 ft 280 kts 272°
2026-05-06 17:17 41.65203 41.24439 8548 ft 284 kts 272°
2026-05-06 17:17 41.65282 41.21790 9190 ft 287 kts 272°
2026-05-06 17:17 41.65362 41.19102 9825 ft 291 kts 272°
2026-05-06 17:18 41.65442 41.16375 10413 ft 296 kts 272°
2026-05-06 17:18 41.65524 41.13534 10586 ft 316 kts 272°
2026-05-06 17:18 41.65582 41.10506 10750 ft 335 kts 267°
2026-05-06 17:18 41.65324 41.07336 10988 ft 350 kts 260°
2026-05-06 17:19 41.64886 41.04098 11466 ft 357 kts 258°
2026-05-06 17:19 41.64407 41.00841 12152 ft 357 kts 258°
2026-05-06 17:19 41.63937 40.97581 12841 ft 358 kts 258°
2026-05-06 17:19 41.63479 40.94295 13488 ft 361 kts 258°
2026-05-06 17:20 41.63029 40.90969 14122 ft 365 kts 258°
2026-05-06 17:20 41.62586 40.87621 14718 ft 368 kts 258°
2026-05-06 17:20 41.62142 40.84240 15314 ft 371 kts 258°
2026-05-06 17:20 41.61696 40.80835 15913 ft 374 kts 258°
2026-05-06 17:21 41.61246 40.77395 16520 ft 377 kts 258°
2026-05-06 17:21 41.60792 40.73935 17120 ft 380 kts 258°
2026-05-06 17:21 41.60331 40.70442 17703 ft 383 kts 258°
2026-05-06 17:21 41.59825 40.66928 18272 ft 386 kts 253°
2026-05-06 17:22 41.58853 40.63542 18791 ft 386 kts 240°
2026-05-06 17:22 41.57427 40.60510 19313 ft 386 kts 230°
2026-05-06 17:22 41.55640 40.57841 19824 ft 387 kts 225°
2026-05-06 17:22 41.53771 40.55233 20318 ft 390 kts 224°
2026-05-06 17:23 41.51881 40.52623 20801 ft 393 kts 224°
2026-05-06 17:23 41.49981 40.49985 21290 ft 395 kts 225°
2026-05-06 17:23 41.48075 40.47320 21764 ft 398 kts 225°
2026-05-06 17:23 41.46165 40.44632 22234 ft 401 kts 225°
2026-05-06 17:24 41.44244 40.41922 22698 ft 403 kts 225°
2026-05-06 17:24 41.42314 40.39195 23146 ft 406 kts 225°
2026-05-06 17:24 41.40367 40.36445 23581 ft 409 kts 225°
2026-05-06 17:24 41.38409 40.33680 23966 ft 412 kts 225°
2026-05-06 17:25 41.36439 40.30902 24366 ft 413 kts 225°
2026-05-06 17:25 41.34463 40.28121 24771 ft 414 kts 225°
2026-05-06 17:25 41.32482 40.25336 25153 ft 415 kts 225°
2026-05-06 17:25 41.30485 40.22545 25519 ft 417 kts 224°
2026-05-06 17:26 41.28481 40.19751 25886 ft 418 kts 224°
2026-05-06 17:26 41.26465 40.16945 26261 ft 420 kts 224°
2026-05-06 17:26 41.24446 40.14136 26603 ft 421 kts 224°
2026-05-06 17:26 41.22417 40.11315 26947 ft 423 kts 224°
2026-05-06 17:27 41.20381 40.08485 27290 ft 424 kts 224°
2026-05-06 17:27 41.18338 40.05647 27632 ft 426 kts 224°
2026-05-06 17:27 41.16288 40.02801 27952 ft 427 kts 224°
2026-05-06 17:27 41.14234 39.99953 28331 ft 427 kts 224°
2026-05-06 17:28 41.12174 39.97101 28635 ft 429 kts 224°
2026-05-06 17:28 41.10105 39.94237 28907 ft 431 kts 224°
2026-05-06 17:28 41.08023 39.91359 29203 ft 433 kts 224°
2026-05-06 17:28 41.05942 39.88482 29625 ft 431 kts 224°
2026-05-06 17:29 41.03876 39.85630 30124 ft 428 kts 224°
2026-05-06 17:29 41.01819 39.82794 30501 ft 426 kts 224°
2026-05-06 17:29 40.99843 39.79853 30689 ft 430 kts 230°
2026-05-06 17:29 40.98185 39.76532 30864 ft 436 kts 239°
2026-05-06 17:30 40.96786 39.72971 31143 ft 436 kts 240°
2026-05-06 17:30 40.95414 39.69400 31440 ft 435 kts 240°
2026-05-06 17:30 40.94041 39.65828 31676 ft 437 kts 240°
2026-05-06 17:30 40.92657 39.62251 31888 ft 438 kts 240°
2026-05-06 17:31 40.91261 39.58672 32143 ft 438 kts 240°
2026-05-06 17:31 40.89858 39.55097 32398 ft 438 kts 240°
2026-05-06 17:31 40.88451 39.51529 32635 ft 439 kts 240°
2026-05-06 17:31 40.87036 39.47953 32853 ft 439 kts 240°
2026-05-06 17:32 40.85620 39.44378 33101 ft 439 kts 240°
2026-05-06 17:32 40.84201 39.40801 33334 ft 439 kts 241°
2026-05-06 17:32 40.82783 39.37230 33564 ft 440 kts 241°
2026-05-06 17:32 40.81361 39.33653 33784 ft 440 kts 241°
2026-05-06 17:33 40.79936 39.30072 34038 ft 440 kts 241°
2026-05-06 17:33 40.78513 39.26498 34142 ft 442 kts 241°
2026-05-06 17:33 40.77077 39.22898 34150 ft 443 kts 241°
2026-05-06 17:34 40.74212 39.15728 34147 ft 440 kts 241°
2026-05-06 17:34 40.71364 39.08616 34142 ft 437 kts 241°
2026-05-06 17:35 40.68529 39.01552 34149 ft 435 kts 241°
2026-05-06 17:35 40.65700 38.94520 34140 ft 434 kts 241°
2026-05-06 17:36 40.61440 38.83988 34148 ft 436 kts 241°
2026-05-06 17:36 40.58575 38.76947 34149 ft 438 kts 241°
2026-05-06 17:37 40.55690 38.69865 34143 ft 440 kts 241°
2026-05-06 17:37 40.52790 38.62756 34140 ft 442 kts 241°
2026-05-06 17:38 40.49864 38.55627 34133 ft 444 kts 240°
2026-05-06 17:38 40.46846 38.48541 34137 ft 445 kts 240°
2026-05-06 17:39 40.43806 38.41462 34130 ft 445 kts 240°
2026-05-06 17:39 40.40775 38.34379 34125 ft 445 kts 240°
2026-05-06 17:40 40.37748 38.27310 34127 ft 444 kts 241°
2026-05-06 17:40 40.34864 38.20165 34125 ft 443 kts 242°
2026-05-06 17:41 40.31994 38.13027 34126 ft 442 kts 241°
2026-05-06 17:41 40.29018 38.05986 34132 ft 441 kts 240°
2026-05-06 17:42 40.26022 37.98982 34129 ft 441 kts 241°
2026-05-06 17:42 40.23038 37.91987 34137 ft 440 kts 241°
2026-05-06 17:43 40.20063 37.85004 34112 ft 438 kts 242°
2026-05-06 17:43 40.17097 37.78054 34120 ft 437 kts 242°
2026-05-06 17:44 40.14127 37.71113 34130 ft 437 kts 242°
2026-05-06 17:44 40.11153 37.64175 34133 ft 438 kts 242°
2026-05-06 17:45 40.08173 37.57242 34128 ft 438 kts 242°
2026-05-06 17:45 40.05201 37.50297 34130 ft 438 kts 242°
2026-05-06 17:46 40.02233 37.43350 34126 ft 438 kts 242°
2026-05-06 17:46 39.99259 37.36405 34114 ft 439 kts 242°
2026-05-06 17:47 39.96273 37.29451 34118 ft 439 kts 242°
2026-05-06 17:47 39.93305 37.22557 34118 ft 439 kts 243°
2026-05-06 17:48 39.90315 37.15625 34124 ft 439 kts 243°
2026-05-06 17:48 39.87321 37.08700 34126 ft 439 kts 243°
2026-05-06 17:49 39.84326 37.01787 34126 ft 438 kts 243°
2026-05-06 17:49 39.81331 36.94889 34129 ft 438 kts 243°
2026-05-06 17:50 39.78449 36.89465 34130 ft 442 kts 231°
2026-05-06 17:50 39.72921 36.83456 34133 ft 446 kts 219°
2026-05-06 17:51 39.68716 36.79574 34130 ft 446 kts 218°
2026-05-06 17:51 39.63666 36.74905 34124 ft 445 kts 219°
2026-05-06 17:52 39.58637 36.70208 34116 ft 445 kts 219°
2026-05-06 17:52 39.53625 36.65505 34112 ft 445 kts 219°
2026-05-06 17:53 39.48621 36.60813 34112 ft 444 kts 219°
2026-05-06 17:53 39.43619 36.56133 34116 ft 443 kts 219°
2026-05-06 17:54 39.38623 36.51467 34118 ft 443 kts 219°
2026-05-06 17:54 39.33631 36.46814 34118 ft 442 kts 219°
2026-05-06 17:55 39.28637 36.42168 34112 ft 442 kts 219°
2026-05-06 17:55 39.23649 36.37536 34121 ft 442 kts 219°
2026-05-06 17:56 39.18665 36.32915 34113 ft 441 kts 219°
2026-05-06 17:56 39.13684 36.28306 34119 ft 440 kts 220°
2026-05-06 17:57 39.08707 36.23708 34121 ft 440 kts 220°
2026-05-06 17:57 39.03739 36.19127 34125 ft 439 kts 220°
2026-05-06 17:58 38.98773 36.14555 34118 ft 439 kts 220°
2026-05-06 17:58 38.93840 36.10022 34123 ft 439 kts 220°
2026-05-06 17:59 38.88846 36.05441 34113 ft 438 kts 220°
2026-05-06 17:59 38.83922 36.00933 34107 ft 437 kts 220°
2026-05-06 18:00 38.78978 35.96414 34118 ft 436 kts 220°
2026-05-06 18:00 38.74045 35.91913 34118 ft 435 kts 220°
2026-05-06 18:01 38.69127 35.87432 34130 ft 434 kts 220°
2026-05-06 18:01 38.64209 35.82960 34120 ft 433 kts 220°
2026-05-06 18:02 38.59311 35.78513 34116 ft 431 kts 220°
2026-05-06 18:02 38.54424 35.74084 34114 ft 430 kts 220°
2026-05-06 18:03 38.49546 35.69670 34108 ft 429 kts 220°
2026-05-06 18:03 38.44684 35.65278 34110 ft 428 kts 220°
2026-05-06 18:04 38.39829 35.60898 34123 ft 427 kts 220°
2026-05-06 18:04 38.34978 35.56529 34110 ft 427 kts 220°
2026-05-06 18:05 38.30127 35.52171 34101 ft 426 kts 220°
2026-05-06 18:05 38.25277 35.47830 34114 ft 427 kts 220°
2026-05-06 18:06 38.20412 35.43483 34113 ft 427 kts 220°
2026-05-06 18:06 38.15540 35.39136 34122 ft 428 kts 220°
2026-05-06 18:07 38.10688 35.34812 34107 ft 429 kts 220°
2026-05-06 18:07 38.05798 35.30461 34119 ft 429 kts 220°
2026-05-06 18:08 38.00902 35.26112 34120 ft 430 kts 220°
2026-05-06 18:08 37.95999 35.21765 34132 ft 430 kts 219°
2026-05-06 18:09 37.91090 35.17418 34120 ft 431 kts 219°
2026-05-06 18:09 37.86167 35.13066 34126 ft 433 kts 219°
2026-05-06 18:10 37.81223 35.08704 34122 ft 433 kts 219°
2026-05-06 18:10 37.76276 35.04347 34118 ft 434 kts 219°
2026-05-06 18:11 37.71321 34.99990 34107 ft 433 kts 219°
2026-05-06 18:11 37.66381 34.95654 34114 ft 432 kts 219°
2026-05-06 18:12 37.61441 34.91323 34110 ft 432 kts 219°
2026-05-06 18:12 37.56533 34.87028 34116 ft 432 kts 219°
2026-05-06 18:13 37.51588 34.82708 34108 ft 433 kts 219°
2026-05-06 18:13 37.46639 34.78391 34119 ft 433 kts 219°
2026-05-06 18:14 37.41683 34.74075 34101 ft 433 kts 219°
2026-05-06 18:14 37.36732 34.69771 34109 ft 433 kts 219°
2026-05-06 18:15 37.31777 34.65471 34117 ft 433 kts 218°
2026-05-06 18:15 37.26821 34.61175 34124 ft 433 kts 218°
2026-05-06 18:16 37.21522 34.57517 34120 ft 440 kts 204°
2026-05-06 18:16 37.15719 34.55019 34115 ft 441 kts 202°
2026-05-06 18:17 37.09908 34.52556 34119 ft 441 kts 203°
2026-05-06 18:17 37.04109 34.50052 34108 ft 441 kts 203°
2026-05-06 18:18 36.98322 34.47529 34107 ft 440 kts 203°
2026-05-06 18:18 36.92541 34.45006 34107 ft 440 kts 204°
2026-05-06 18:19 36.86754 34.42483 34093 ft 440 kts 204°
2026-05-06 18:19 36.80972 34.39968 34098 ft 440 kts 204°
2026-05-06 18:20 36.75188 34.37457 34093 ft 440 kts 204°
2026-05-06 18:20 36.69406 34.34950 34091 ft 440 kts 204°
2026-05-06 18:21 36.63627 34.32449 34089 ft 440 kts 204°
2026-05-06 18:21 36.57843 34.29950 34091 ft 440 kts 204°
2026-05-06 18:22 36.52060 34.27455 34082 ft 440 kts 204°
2026-05-06 18:22 36.46281 34.24965 34084 ft 440 kts 204°
2026-05-06 18:23 36.40499 34.22479 34086 ft 440 kts 204°
2026-05-06 18:23 36.34721 34.19998 34085 ft 439 kts 204°
2026-05-06 18:24 36.28945 34.17521 34078 ft 439 kts 204°
2026-05-06 18:24 36.23169 34.15049 34083 ft 439 kts 204°
2026-05-06 18:25 36.17393 34.12580 34085 ft 439 kts 204°
2026-05-06 18:25 36.11684 34.10144 34079 ft 439 kts 204°
2026-05-06 18:26 36.06677 34.08010 34080 ft 439 kts 204°
2026-05-06 18:26 36.00905 34.05553 34076 ft 439 kts 205°
2026-05-06 18:27 35.95131 34.03100 34080 ft 439 kts 205°
2026-05-06 18:27 35.89220 34.01101 34079 ft 447 kts 193°
2026-05-06 18:28 35.83034 34.00186 34078 ft 448 kts 192°
2026-05-06 18:28 35.76833 33.99333 34078 ft 448 kts 192°
2026-05-06 18:29 35.70635 33.98438 34082 ft 448 kts 193°
2026-05-06 18:29 35.64465 33.97517 34084 ft 449 kts 193°
2026-05-06 18:30 35.58264 33.96585 34071 ft 449 kts 193°
2026-05-06 18:30 35.52059 33.95653 34076 ft 449 kts 193°
2026-05-06 18:31 35.45851 33.94724 34074 ft 450 kts 193°
2026-05-06 18:31 35.39633 33.93795 34085 ft 450 kts 193°
2026-05-06 18:32 35.33415 33.92868 34086 ft 450 kts 193°
2026-05-06 18:32 35.27191 33.91941 34086 ft 451 kts 193°
2026-05-06 18:33 35.20922 33.91009 34085 ft 451 kts 193°
2026-05-06 18:33 35.14693 33.90085 34085 ft 451 kts 193°
2026-05-06 18:34 35.09520 33.89318 34078 ft 451 kts 193°
2026-05-06 18:34 35.03297 33.88397 34079 ft 450 kts 193°
2026-05-06 18:35 34.97078 33.87478 34075 ft 450 kts 193°
2026-05-06 18:35 34.90869 33.86562 34077 ft 449 kts 193°
2026-05-06 18:36 34.84663 33.85647 34075 ft 449 kts 193°
2026-05-06 18:36 34.78464 33.84735 34079 ft 449 kts 194°
2026-05-06 18:37 34.72262 33.83823 34088 ft 449 kts 194°
2026-05-06 18:37 34.66064 33.82914 34089 ft 449 kts 194°
2026-05-06 18:38 34.59863 33.82005 34082 ft 449 kts 194°
2026-05-06 18:38 34.53656 33.81097 34084 ft 449 kts 194°
2026-05-06 18:39 34.47424 33.80311 34074 ft 456 kts 187°
2026-05-06 18:40 34.38082 33.81000 34077 ft 462 kts 183°
2026-05-06 18:40 34.31991 33.81545 34081 ft 462 kts 183°
2026-05-06 18:41 34.25579 33.82062 34084 ft 462 kts 184°
2026-05-06 18:41 34.19163 33.82555 34084 ft 462 kts 184°
2026-05-06 18:42 34.12754 33.83049 34080 ft 458 kts 184°
2026-05-06 18:42 34.06497 33.83536 34082 ft 446 kts 184°
2026-05-06 18:43 34.00304 33.84009 33940 ft 447 kts 184°
2026-05-06 18:43 33.97211 33.84249 33617 ft 443 kts 184°
2026-05-06 18:43 33.94157 33.84490 33202 ft 438 kts 184°
2026-05-06 18:43 33.91132 33.84730 32832 ft 433 kts 184°
2026-05-06 18:44 33.88135 33.84965 32423 ft 430 kts 184°
2026-05-06 18:44 33.85160 33.85196 32034 ft 426 kts 184°
2026-05-06 18:44 33.82215 33.85425 31645 ft 423 kts 184°
2026-05-06 18:44 33.79289 33.85651 31266 ft 420 kts 184°
2026-05-06 18:45 33.78343 33.85725 31138 ft 419 kts 184°
2026-05-06 18:45 33.75214 33.85966 30727 ft 416 kts 185°
2026-05-06 18:45 33.72373 33.86186 30356 ft 413 kts 185°
2026-05-06 18:46 33.69514 33.86406 29942 ft 411 kts 185°
2026-05-06 18:46 33.66671 33.86626 29501 ft 408 kts 184°
2026-05-06 18:46 33.63851 33.86843 29085 ft 404 kts 184°
2026-05-06 18:46 33.61056 33.87060 28669 ft 401 kts 184°
2026-05-06 18:47 33.58285 33.87274 28277 ft 398 kts 184°
2026-05-06 18:47 33.55536 33.87485 27888 ft 394 kts 184°
2026-05-06 18:47 33.52809 33.87695 27504 ft 391 kts 184°
2026-05-06 18:47 33.50102 33.87903 27118 ft 388 kts 184°
2026-05-06 18:48 33.47416 33.88110 26735 ft 386 kts 184°
2026-05-06 18:48 33.44744 33.88314 26350 ft 383 kts 184°
2026-05-06 18:48 33.42090 33.88518 25968 ft 381 kts 183°
2026-05-06 18:48 33.39451 33.88720 25591 ft 379 kts 183°
2026-05-06 18:49 33.36826 33.88921 25213 ft 377 kts 183°
2026-05-06 18:49 33.34211 33.89121 24822 ft 376 kts 183°
2026-05-06 18:49 33.31611 33.89320 24448 ft 374 kts 183°
2026-05-06 18:49 33.29015 33.89519 24067 ft 373 kts 183°
2026-05-06 18:50 33.26426 33.89717 23675 ft 372 kts 183°
2026-05-06 18:50 33.23850 33.89914 23243 ft 370 kts 183°
2026-05-06 18:50 33.21286 33.90111 22843 ft 368 kts 183°
2026-05-06 18:50 33.18742 33.90304 22448 ft 365 kts 183°
2026-05-06 18:51 33.16212 33.90493 22048 ft 363 kts 183°
2026-05-06 18:51 33.13697 33.90679 21675 ft 361 kts 183°
2026-05-06 18:51 33.11203 33.90863 21307 ft 358 kts 183°
2026-05-06 18:51 33.08722 33.91046 20945 ft 356 kts 183°
2026-05-06 18:52 33.06258 33.91228 20591 ft 354 kts 182°
2026-05-06 18:52 33.03812 33.91408 20225 ft 351 kts 182°
2026-05-06 18:52 33.01380 33.91587 19876 ft 349 kts 182°
2026-05-06 18:52 32.98959 33.91765 19530 ft 347 kts 182°
2026-05-06 18:53 32.96552 33.91943 19181 ft 346 kts 182°
2026-05-06 18:53 32.94155 33.92119 18834 ft 344 kts 182°
2026-05-06 18:53 32.91770 33.92294 18472 ft 343 kts 182°
2026-05-06 18:53 32.89355 33.92471 18065 ft 343 kts 182°
2026-05-06 18:54 32.87004 33.92643 17617 ft 343 kts 182°
2026-05-06 18:54 32.84629 33.92818 17252 ft 341 kts 182°
2026-05-06 18:54 32.82238 33.92994 16877 ft 339 kts 182°
2026-05-06 18:54 32.79892 33.93166 16532 ft 337 kts 181°
2026-05-06 18:55 32.77561 33.93338 16185 ft 335 kts 181°
2026-05-06 18:55 32.75246 33.93508 15823 ft 332 kts 181°
2026-05-06 18:55 32.72941 33.93677 15500 ft 331 kts 181°
2026-05-06 18:55 32.70653 33.93844 15157 ft 329 kts 181°
2026-05-06 18:56 32.68373 33.94011 14816 ft 327 kts 181°
2026-05-06 18:56 32.66105 33.94177 14482 ft 326 kts 181°
2026-05-06 18:56 32.63844 33.94342 14153 ft 325 kts 181°
2026-05-06 18:56 32.61593 33.94506 13805 ft 323 kts 181°
2026-05-06 18:57 32.59352 33.94670 13433 ft 322 kts 181°
2026-05-06 18:57 32.57129 33.94989 13055 ft 326 kts 166°
2026-05-06 18:57 32.55183 33.96171 12808 ft 328 kts 143°
2026-05-06 18:57 32.53580 33.98013 12608 ft 326 kts 136°
2026-05-06 18:58 32.52037 33.99973 12364 ft 325 kts 135°
2026-05-06 18:58 32.50504 34.01938 12139 ft 325 kts 135°
2026-05-06 18:58 32.48962 34.03899 11901 ft 326 kts 135°
2026-05-06 18:58 32.47411 34.05851 11666 ft 325 kts 135°
2026-05-06 18:59 32.45854 34.07796 11432 ft 325 kts 136°
2026-05-06 18:59 32.44298 34.09732 11199 ft 324 kts 135°
2026-05-06 18:59 32.42750 34.11673 10964 ft 324 kts 133°
2026-05-06 18:59 32.41384 34.13791 10708 ft 324 kts 126°
2026-05-06 19:00 32.40155 34.16003 10462 ft 320 kts 124°
2026-05-06 19:00 32.38958 34.18203 10210 ft 316 kts 124°
2026-05-06 19:00 32.37766 34.20365 9953 ft 312 kts 124°
2026-05-06 19:00 32.36983 34.21764 9929 ft 303 kts 125°
2026-05-06 19:01 32.35425 34.24508 9498 ft 302 kts 125°
2026-05-06 19:01 32.34255 34.26552 9226 ft 299 kts 125°
2026-05-06 19:01 32.33096 34.28573 8973 ft 295 kts 125°
2026-05-06 19:01 32.31946 34.30573 8692 ft 293 kts 124°
2026-05-06 19:02 32.30803 34.32556 8414 ft 291 kts 124°
2026-05-06 19:02 32.29670 34.34523 8144 ft 288 kts 124°
2026-05-06 19:02 32.28547 34.36471 7874 ft 286 kts 124°
2026-05-06 19:02 32.27433 34.38403 7605 ft 283 kts 124°
2026-05-06 19:03 32.26327 34.40321 7340 ft 281 kts 124°
2026-05-06 19:03 32.25229 34.42223 7071 ft 279 kts 124°
2026-05-06 19:03 32.24138 34.44112 6813 ft 277 kts 124°
2026-05-06 19:03 32.23055 34.45986 6559 ft 276 kts 124°
2026-05-06 19:04 32.21975 34.47849 6291 ft 274 kts 124°
2026-05-06 19:04 32.20901 34.49699 6021 ft 272 kts 124°
2026-05-06 19:04 32.19835 34.51537 5758 ft 270 kts 124°
2026-05-06 19:04 32.18774 34.53362 5502 ft 269 kts 124°
2026-05-06 19:05 32.17720 34.55175 5244 ft 267 kts 124°
2026-05-06 19:05 32.16660 34.56997 4988 ft 265 kts 124°
2026-05-06 19:05 32.15684 34.58830 4722 ft 263 kts 120°
2026-05-06 19:05 32.14770 34.60690 4447 ft 262 kts 120°
2026-05-06 19:06 32.13860 34.62544 4181 ft 260 kts 119°
2026-05-06 19:06 32.12964 34.64381 3917 ft 256 kts 120°
2026-05-06 19:06 32.12079 34.66129 3808 ft 239 kts 120°
2026-05-06 19:06 32.11243 34.67743 3661 ft 221 kts 121°
2026-05-06 19:07 32.10469 34.69231 3488 ft 207 kts 120°
2026-05-06 19:07 32.09980 34.70172 3326 ft 200 kts 120°
2026-05-06 19:07 32.09031 34.72000 2967 ft 190 kts 120°
2026-05-06 19:07 32.08356 34.73300 2725 ft 181 kts 120°
2026-05-06 19:08 32.07718 34.74529 2512 ft 172 kts 120°
2026-05-06 19:08 32.07100 34.75722 2303 ft 171 kts 120°
2026-05-06 19:08 32.06482 34.76912 2041 ft 167 kts 119°
2026-05-06 19:08 32.05893 34.78049 1815 ft 159 kts 119°
2026-05-06 19:09 32.05320 34.79156 1623 ft 159 kts 120°
2026-05-06 19:09 32.04741 34.80271 1413 ft 159 kts 120°
2026-05-06 19:09 32.04166 34.81383 1173 ft 158 kts 120°
2026-05-06 19:09 32.03608 34.82464 935 ft 156 kts 119°
2026-05-06 19:10 32.03044 34.83552 736 ft 156 kts 120°
2026-05-06 19:10 32.02480 34.84639 532 ft 155 kts 120°
2026-05-06 19:10 32.01919 34.85722 322 ft 154 kts 120°
2026-05-06 19:10 32.01359 34.86801 150 ft 155 kts 120°
2026-05-06 19:11 32.00837 34.87807 117 ft 122 kts 121°
2026-05-06 19:11 32.00521 34.88417 120 ft 49 kts 122°
2026-05-06 19:11 32.00284 34.88660 119 ft 36 kts 155°
2026-05-06 19:11 32.00199 34.88595 119 ft 14 kts 285°
2026-05-06 19:12 32.00254 34.88499 118 ft 14 kts 303°
2026-05-06 19:12 32.00306 34.88399 118 ft 16 kts 301°
2026-05-06 19:12 32.00373 34.88270 118 ft 21 kts 301°
2026-05-06 19:12 32.00428 34.88164 116 ft 25 kts 302°
2026-05-06 19:13 32.00506 34.88015 117 ft 2 kts 302°
2026-05-06 19:13 32.00520 34.87989 117 ft 7 kts 302°
2026-05-06 19:13 32.00564 34.87906 119 ft 16 kts 302°
2026-05-06 19:13 32.00628 34.87768 116 ft 19 kts 281°
2026-05-06 19:14 32.00552 34.87661 115 ft 17 kts 236°
2026-05-06 19:14 32.00486 34.87545 119 ft 17 kts 235°
2026-05-06 19:14 32.00440 34.87492 116 ft 10 kts 217°
2026-05-06 19:14 32.00419 34.87473 118 ft 2 kts 216°
2026-05-06 19:15 32.00416 34.87470 118 ft 0 kts 216°